STARLINK-2415, 47828

Orbit data source: Space-Track

STARLINK-2415, 47828 is a payload satellite owned by SpaceX/Seattle (US) in LEO that was launched on Thu, 11 Mar 2021 UTC via an FALCON 9 launch vehicle from the Air Force Eastern Test Range (AFETR). Payload-class satellites include a variety of spacecraft equipped with specific instruments for various scientific and technological missions. These include communications satellites like Starlink; space stations such as the ISS; scientific satellites like the Hubble; Earth observation satellites from companies like Planet Labs, Umbra, and HawkEye 360; GPS; miniature CubeSats for education and research; and military/defense satellites.

Loading next visibility...
Identifier
47828, 2021-018AT
Orbit
LEO
Country
Flag of USUS
Related business
Manufacturer
SpaceX/Seattle
Mission
Operational Commercial Communications
Bus & Motor
STARLINK, Unknown motor
Mass
260 kg wet, ~248 kg dry
Launch date (UTC)
2021-03-11 (5 years ago)
Launch vehicle
FALCON 9
Launch site
Air Force Eastern Test Range (AFETR)
Object type
Payload
Rocket body
Debris
Shape & HBR
Box + 1 Pan, 10.1 m
Radar Cross Section
13.562 m², Large (>1 m²)

Expand to show TLE details & history
Last TLE update: 13 hours ago

TLE from 13 hours ago
0 STARLINK-2415
1 47828U 21018AT  26119.99665039  .00026198  00000-0  85176-3 0  9993
2 47828  53.1615  16.7854 0001116 100.5670 259.5457 15.31746918284412
Epoch: 2026-04-29T23:55Z
TLE epoch observation values (Epoch: 2026-04-29T23:55:10.593Z)
Latitude
-0.00005°
Longitude
160.04163°
Altitude
471.639 km
Speed
7.631 km/s
True Right ascension
01h 07m 08s
True Declination
0° 00' 00"
Sunlit
Object was in daylight at epoch
Visualization orbit readout
Latitude
Unknown
Longitude
Unknown
Altitude
Unknown
Speed
Unknown
Apparent Right ascension
Unknown
Apparent Declination
Unknown
Sunlit
N/A
Visualization observer readout
Local Sidereal Time
20:12:59
Azimuth
Unknown
Elevation
Unknown
Doppler factor
Unknown
Orbital elements
Apogee altitude
471.621 km
Perigee altitude
470.092 km
Semi-major axis
6,848.993 km
Eccentricity
0.00011
Inclination
53.1615°
RAAN
16.7854°
Arg. of periapsis
100.567°
True anomaly
259.53312°
Mean anomaly
259.5457°
Eccentric anomaly
259.53941°
Mean motion
3.82916 °/min
Orbital period
94.02 mins
BSTAR
0.00085176
Loading maneuver chart data...
Computing Atmospheric mass density...
Loading historical data...
Loading historical data...
Loading historical data...
Loading historical data...
Loading historical data...
Loading historical data...
Loading historical data...

Documentation

Showing up to 5 results
|